sat.trackr.live / text

‹ back to catalog

PERSEUS-M2

NORAD 40037 · 2014-033AD

PAYLOAD ACTIVE UNKNOWN

§ Identity

Operator
Country
CIS
Launch date
2014-06-19
Launch site
DLS
Launch vehicle
Mass (kg)
RCS (m²)
0.15

Purposes: tech_demo

External: N2YO · Heavens-Above · Gunter

§ Orbital elements

Epoch: 2026-05-25T04:19:15.960576Z

Period
96.29 min
Inclination
97.9952°
Eccentricity
0.0012599
Mean motion
14.95423588 rev/d
Perigee alt
572.3 km
Apogee alt
589.8 km
Semi-major
6,959.2 km
B*
7.6235e-5
RAAN
95.2560°
Arg perigee
21.6610°
Mean anomaly
338.5140°
Rev number
64,734

§ Raw data

PERSEUS-M21 40037U 14033AD  26145.18004584  .00000782  00000+0  76235-4 0  99962 40037  97.9952  95.2560 0012599  21.6610 338.5140 14.95423588647343

JSON: /api/v1/satellites/40037 · /tle

For live sub-satellite position, see the globe view (requires WebGL).

§ Visibility from observer

Set your observer location to see the next 7 days of passes ≥ 10°. The values pass through the URL so the page stays shareable.

No JS? Fill the form by hand. The geolocation button needs JavaScript.